Flag for New Zealand Weather past 2 weeks in Wellington, New Zealand

Now
63 °F

Passing clouds.


Feels Like: 63 °F
Forecast: 60 / 67 °F
Wind: 25 mph from North

Location: Wellington Airport

Current Time: Apr 2, 2015 at 11:01:55 PM

Latest Report: Apr 2, 2015 at 10:30 PM


Visibility: N/A

Pressure: 30.24 "Hg

Humidity: 77%

Dew point: 55 °F

Location of WellingtonLocation

Historic Weather in Wellington — Graph

°F

Wellington temperature yesterday

Maximum temperature yesterday: 68 °F (at 6:00 PM)
Minimum temperature yesterday: 54 °F (at 4:00 AM)
Average temperature yesterday: 60 °F

Past Weeks' High & Low Weather Summary

 TemperatureHumidityPressure
High70 °F (Mar 26, 12:00 PM)100% (Mar 22, 8:30 AM)30.36 "Hg (Mar 22, 8:30 AM)
Low48 °F (Mar 21, 3:30 AM)48% (Mar 20, 9:00 AM)29.65 "Hg (Mar 29, 8:00 PM)
Average61 °F79%30.08 "Hg
* Reported Mar 18 9:00 PM — Apr 2 9:30 PM, Wellington, Weather by CustomWeather, © 2015

Note: Actual official high and low records may vary slightly from our data, if they occured in-between our weather recording intervals... More about our weather records

Advertising

Wellington weather history for previous 24 hours

 ConditionsComfort  
Time TempWeatherWind HumidityBarometerVisibility
9:30 PM
Thu, Apr 2
63 °FPassing clouds.21 mph77%30.24 "HgN/A
9:00 PM63 °FPassing clouds.21 mph77%30.21 "HgN/A
8:30 PM63 °FPassing clouds.22 mph73%30.21 "HgN/A
8:00 PM63 °FOvercast.18 mph73%30.21 "HgN/A
7:30 PM63 °FPassing clouds.24 mph73%30.21 "HgN/A
7:00 PM63 °FScattered clouds.30 mph73%30.18 "HgN/A
6:30 PM64 °FMild.33 mph68%30.18 "HgN/A
6:00 PM64 °FMild.32 mph64%30.21 "HgN/A
5:30 PM66 °FMild.30 mph60%30.21 "HgN/A
5:00 PM66 °FPassing clouds.30 mph60%30.21 "HgN/A
4:30 PM66 °FScattered clouds.28 mph60%30.21 "HgN/A
3:30 PM68 °FPassing clouds.31 mph56%30.24 "HgN/A
3:00 PM66 °FPartly sunny.29 mph64%30.24 "HgN/A
2:30 PM66 °FOvercast.29 mph64%30.27 "HgN/A
2:00 PM66 °FMore clouds than sun.26 mph64%30.27 "HgN/A
1:30 PM66 °FOvercast.24 mph64%30.27 "HgN/A
1:00 PM66 °FPartly sunny.28 mph64%30.30 "HgN/A
12:30 PM66 °FPartly sunny.29 mph60%30.30 "HgN/A
12:00 PM66 °FScattered clouds.25 mph64%30.30 "HgN/A
11:30 AM66 °FPassing clouds.28 mph64%30.30 "HgN/A
11:00 AM66 °FBroken clouds.23 mph68%30.30 "HgN/A
10:30 AM64 °FScattered clouds.25 mph68%30.30 "HgN/A
10:00 AM64 °FPassing clouds.22 mph64%30.30 "HgN/A
9:30 AM64 °FScattered clouds.23 mph73%30.30 "HgN/A
9:00 AM63 °FScattered clouds.22 mph77%30.30 "HgN/A
8:30 AM63 °FPartly sunny.20 mph77%30.30 "HgN/A
8:00 AM63 °FBroken clouds.21 mph77%30.30 "HgN/A
7:30 AM63 °FPartly cloudy.20 mph77%30.30 "HgN/A
7:00 AM61 °FMostly cloudy.18 mph83%30.27 "HgN/A
6:30 AM61 °FOvercast.18 mph83%30.27 "HgN/A
6:00 AM61 °FPassing clouds.20 mph83%30.27 "HgN/A
5:30 AM61 °FPassing clouds.17 mph83%30.27 "HgN/A
5:00 AM61 °FPassing clouds.15 mph83%30.30 "HgN/A
4:30 AM61 °FPassing clouds.17 mph83%30.30 "HgN/A
4:00 AM61 °FPassing clouds.14 mph83%30.30 "HgN/A
3:30 AM61 °FPassing clouds.14 mph83%30.30 "HgN/A
3:00 AM61 °FPassing clouds.15 mph83%30.30 "HgN/A
2:30 AM61 °FPassing clouds.16 mph83%30.33 "HgN/A
2:00 AM61 °FCool.16 mph83%30.33 "HgN/A
1:30 AM61 °FCool.15 mph83%30.33 "HgN/A
1:00 AM61 °FCool.14 mph83%30.33 "HgN/A
12:30 AM61 °FCool.15 mph77%30.33 "HgN/A
12:00 AM61 °FCool.13 mph77%30.33 "HgN/A
11:30 PM
Wed, Apr 1
61 °FCool.12 mph77%30.33 "HgN/A
11:00 PM61 °FCool.12 mph77%30.33 "HgN/A
Weather by CustomWeather, © 2015

See weather overviewHow to use our weather pages